E1646 Weather Reports


Display with metric or nautical units.
time (UTC)temp
F
wind
direction
speed
MPH
gust
MPH
rain 1hr
in
rain 24hr
in
rain mn
in
humidity
%
barometer
mb
20260503021531 46 358 3.0 6.0 0.00 0.02 0.02 52 1012.0
20260503020020 47 343 5.0 14.0 0.00 0.02 0.02 49 1012.1
20260503014517 47 34 5.0 10.0 0.00 0.02 0.02 48 1012.0
20260503013013 47 10 4.0 8.0 0.00 0.02 0.02 48 1012.1
20260503011508 48 8 2.0 6.0 0.00 0.02 0.02 49 1011.9
20260503010006 48 342 2.0 4.0 0.00 0.02 0.02 49 1011.8
20260503004504 48 345 1.0 4.0 0.00 0.02 0.02 49 1011.6
20260503003100 48 339 2.0 5.0 0.00 0.02 0.02 48 1011.6
20260503001554 48 342 3.0 8.0 0.00 0.02 0.02 46 1011.4
20260503000047 49 342 3.0 9.0 0.00 0.02 0.02 46 1011.3
20260502234541 50 332 5.0 11.0 0.00 0.02 0.02 44 1011.2
20260502233036 51 5 6.0 13.0 0.00 0.02 0.02 44 1011.1
20260502231531 50 20 6.0 11.0 0.00 0.02 0.02 44 1011.0
20260502230023 51 19 5.0 12.0 0.00 0.02 0.02 43 1010.9
20260502224619 51 349 5.0 12.0 0.00 0.02 0.02 43 1010.8
20260502223011 51 20 7.0 17.0 0.00 0.02 0.02 43 1010.7
20260502221505 52 325 6.0 11.0 0.00 0.02 0.02 42 1010.5
20260502220105 52 308 7.0 12.0 0.00 0.02 0.02 42 1010.4
20260502214552 53 357 5.0 11.0 0.00 0.02 0.02 41 1010.3
20260502213046 54 357 5.0 14.0 0.00 0.02 0.02 40 1010.2
20260502211546 54 5 6.0 12.0 0.00 0.02 0.02 40 1010.1
20260502210034 53 343 6.0 13.0 0.00 0.02 0.02 43 1010.1
20260502204528 53 345 2.0 6.0 0.00 0.02 0.02 52 1010.0
20260502203023 53 338 1.0 5.0 0.00 0.02 0.02 58 1010.0
20260502201516 54 352 6.0 18.0 0.00 0.02 0.02 41 1010.1
20260502200010 53 321 1.0 7.0 0.00 0.02 0.02 52 1010.3
20260502194505 53 342 1.0 9.0 0.00 0.02 0.02 51 1010.5
20260502193102 54 346 3.0 8.0 0.00 0.02 0.02 55 1010.7
20260502191556 53 23 2.0 8.0 0.00 0.02 0.02 60 1010.9
20260502190101 54 18 3.0 7.0 0.00 0.02 0.02 49 1011.0
20260502184550 53 312 0.0 8.0 0.00 0.02 0.02 64 1011.1
20260502183037 53 23 3.0 6.0 0.00 0.02 0.02 59 1011.3
20260502181530 52 343 6.0 11.0 0.00 0.02 0.02 66 1011.1
20260502163150 48 19 5.0 9.0 0.00 0.02 0.02 77 1011.9
20260502161544 46 341 5.0 10.0 0.00 0.02 0.02 80 1011.9
20260502151521 48 23 7.0 12.0 0.00 0.02 0.02 78 1012.0
20260502123012 45 210 1.0 5.0 0.00 0.02 0.02 37 1012.1
20260502121506 45 323 0.0 6.0 0.00 0.02 0.02 21 1012.1
20260502120104 45 222 1.0 5.0 0.00 0.02 0.02 22 1012.0
20260502114555 44 271 1.0 5.0 0.00 0.02 0.02 1 1012.1
20260502113049 44 258 1.0 4.0 0.00 0.02 0.02 11 1012.1
20260502111553 43 224 2.0 5.0 0.00 0.02 0.02 15 1012.0
20260502110037 43 257 0.0 3.0 0.00 0.02 0.02 8 1011.5
20260502104541 43 154 1.0 0.0 0.00 0.02 0.02 1 1011.3
20260502103027 0 0.0 0.0 0.00 0.02 0.02 1011.2
20260502101522 0 0.0 0.0 0.00 0.02 0.02 1011.2
20260502091503 0 0.0 0.0 0.00 0.02 0.02 1011.0
20260502071522 0 0.0 0.0 0.00 0.02 0.02 1011.8
20260502070022 44 328 2.0 8.0 0.00 0.02 0.02 58 1012.0
20260502064526 45 5 3.0 8.0 0.00 0.02 0.02 63 1011.9
20260502063011 45 70 0.0 6.0 0.00 0.02 0.02 74 1011.9
20260502061507 45 334 2.0 7.0 0.00 0.02 0.02 78 1011.9
20260502060006 45 16 1.0 5.0 0.02 0.02 0.02 79 1011.9
20260502054500 45 103 0.0 1.0 0.02 0.02 0.02 81 1011.9
20260502053106 45 103 1.0 1.0 0.02 0.02 0.02 81 1011.7
20260502051600 47 188 0.0 3.0 0.02 0.02 0.02 80 1012.1
20260502050055 48 159 0.0 2.0 0.00 0.00 0.00 74 1012.1
20260502044544 49 128 0.0 1.0 0.00 0.00 0.00 74 1011.7
20260502043039 50 323 0.0 0.0 0.00 0.00 0.00 68 1011.6
20260502041538 51 323 0.0 2.0 0.00 0.00 0.00 66 1011.9
20260502040032 51 117 0.0 1.0 0.00 0.00 0.00 66 1011.7
20260502034533 51 115 0.0 2.0 0.00 0.00 0.00 67 1011.7
20260502033026 51 136 1.0 3.0 0.00 0.00 0.00 66 1011.9
20260502031525 51 134 0.0 3.0 0.00 0.00 0.00 66 1011.9
20260502030021 51 106 1.0 3.0 0.00 0.00 0.00 66 1012.1
20260502024521 51 121 1.0 4.0 0.00 0.00 0.00 67 1012.2
20260502023017 51 169 1.0 3.0 0.00 0.00 0.00 63 1012.0